Zurück zum Katalog

CZ-7A R/B

AktivHEO
NORAD 55132·ROCKET BODY·🇨🇳 China

Gestartet Jan 8, 2023 von Wenchang Space Launch Site

Loading…

Nächste Überflüge (nächste 24 Stunden)

TLE

AktuellSource: Space-Track

Epoche: Sep 14, 2026, 21:45 UTC

1 55132U 23002B   26257.90633875  .00075136  47425-6  10714-2 0  9991
2 55132  16.4545 219.9022 5737768 176.3250 191.1494  4.54966501 47892

Verfolge CZ-7A R/B in Echtzeit mit AllMySat

Download on the App Store